Location: Brightside
(37.5991°N, 121.9244°W)
Time: 00:27:59
(UTC+00:00)

Daily predictions for brighter satellites

Satellite Brightness Start Highest point End
(mag) Time Altitude Azimuth Time Altitude Azimuth Time Altitude Azimuth
Meteor 1-18 Rocket 4.5 03:51:52 10° S 03:57:45 85° W 04:03:35 10° N
Lacrosse 5 rocket 3.3 03:56:20 10° WNW 03:59:40 23° WSW 04:02:55 10° S
Cosmos 1470 4.3 03:58:27 10° NNE 04:01:05 18° ENE 04:03:43 10° ESE
Cosmos 2026 Rocket 4.0 03:59:32 10° S 04:05:44 86° E 04:11:51 10° N
CZ-4 R/B 2.6 04:02:02 10° S 04:05:47 43° W 04:09:37 10° NNW
KORONAS-FOTON 4.3 04:04:33 10° SSE 04:07:59 37° E 04:11:27 10° NNE
Cosmos 1328 Rocket 4.0 04:06:19 10° SSW 04:10:33 63° W 04:14:49 10° N
CZ-4B R/B 3.4 04:07:59 10° S 04:13:14 71° WSW 04:18:34 10° NNW
Cosmos 1842 3.3 04:10:12 10° SSE 04:13:42 48° E 04:17:14 10° NNE
OPS 6432 4.4 04:10:51 10° NW 04:13:56 75° WSW 04:17:26 10° SSE
IRIDIUM 106 4.4 04:16:10 10° N 04:21:20 61° E 04:26:29 10° SSE
Cosmos 2360 Rocket 4.3 04:27:11 10° NNE 04:29:44 13° NE 04:32:15 10° ENE
Cosmos 540 Rocket 3.9 04:24:55 10° N 04:29:54 48° ENE 04:34:02 14° SE
USA 186 4.0 04:27:49 10° SSW 04:30:39 26° W 04:33:30 10° NW
Cosmos 1707 2.4 04:34:51 10° S 04:38:27 81° E 04:42:04 10° N
Okean-O 2.6 04:36:10 12° SSE 04:40:17 79° ENE 04:44:42 10° N
Cosmos 2082 Rocket 3.7 04:35:04 10° SW 04:40:24 40° WNW 04:45:45 10° N
SL-16 R/B 3.3 04:36:17 10° N 04:41:18 31° ENE 04:45:05 15° ESE
Cosmos 1515 Rocket 4.0 04:38:19 10° SSW 04:42:35 63° W 04:46:53 10° N
Cosmos 2333 Rocket 4.2 04:39:50 10° NNE 04:43:11 16° NE 04:46:32 10° E
Cosmos 1954 Rocket 4.3 04:38:01 10° SSW 04:43:17 73° WNW 04:48:35 10° NNE
Cosmos 2369 3.9 04:39:40 10° NNW 04:45:24 74° WSW 04:50:32 13° SSE
SeaSat 1 3.5 04:42:03 15° ESE 04:45:25 33° ENE 04:49:47 10° N
CZ-4C R/B 3.4 04:43:32 10° NNE 04:47:42 88° W 04:51:47 10° SSW
USA 245 4.2 04:47:48 21° ESE 04:49:20 29° ENE 04:52:51 10° N
Atlas Centaur 2 3.3 04:42:07 10° WSW 04:49:52 52° S 04:56:31 16° ESE
Tiangong -2.2 04:50:13 10° WNW 04:53:23 89° SW 04:54:54 28° ESE
Cosmos 676 Rocket 4.3 04:49:06 10° SSW 04:54:24 72° WNW 04:59:43 10° NNE
SPOT 5 2.5 04:53:26 19° SSE 04:56:30 79° ENE 05:00:52 10° N
Cosmos 2228 Rocket 4.1 04:56:00 22° SE 04:57:42 29° E 05:01:37 10° NNE
ASTRO E2 4.0 04:56:50 10° SW 04:58:38 18° S 04:58:38 18° S
Okean O Rocket 3.3 04:56:33 10° SSW 05:00:25 30° W 05:04:17 10° NW
IRS-1A Rocket 4.2 04:57:30 19° SSE 05:01:27 70° ENE 05:06:56 10° N
MetOp-B 4.1 04:57:49 17° SSE 05:02:01 88° E 05:07:24 10° NNW
Cosmos 1356 Rocket 4.4 05:01:42 25° ESE 05:02:50 30° E 05:06:30 10° NNE
SL-08 ROCKET BODY 4.5 04:58:26 14° S 05:03:41 61° E 05:09:39 10° NNE
Cosmos 1869 Rocket 3.7 05:00:42 10° N 05:05:06 59° E 05:07:23 27° SSE
Cosmos 1400 Rocket 2.7 05:03:49 23° S 05:06:07 64° E 05:09:56 10° NNE
Cosmos 1553 Rocket 4.3 05:05:48 10° NNW 05:11:56 67° W 05:17:43 12° S
ERS-1 Rocket 2.9 05:10:39 25° SSE 05:13:34 73° ENE 05:18:35 10° N
ATLAS CENTAUR R/B 0.7 05:11:14 14° SSW 05:14:10 74° ESE 05:17:41 10° NE
S3M 4.0 05:09:11 10° N 05:15:32 68° E 05:19:23 25° SSE
Cosmos 1300 3.6 05:13:53 10° NNE 05:16:59 28° ENE 05:17:15 27° E
Cosmos 1441 Rocket 3.3 05:14:36 10° NNW 05:18:11 65° W 05:19:49 30° S
Cosmos 841 Rocket 3.7 05:14:28 10° N 05:19:40 59° ENE 05:22:02 31° SE
Meteor 1-22 Rocket 4.3 05:15:10 10° N 05:20:53 72° E 05:24:08 28° SSE
Cosmos 2266 Rocket 4.0 05:15:24 11° S 05:21:25 87° W 05:27:51 10° N
Cosmos 1980 Rocket 4.0 05:17:48 10° NW 05:22:20 25° WSW 05:26:51 10° SSW
Cosmos 1655 Rocket 4.0 05:19:20 21° S 05:23:41 67° E 05:30:02 10° NNE
Cosmos 2322 Rocket 2.8 05:18:52 10° N 05:24:17 43° ENE 05:26:46 28° ESE
Spot 2 Rocket 3.5 05:22:35 31° SSE 05:24:57 69° ENE 05:30:01 10° N
Timation 1 Rocket 4.5 05:19:46 10° SSW 05:25:43 75° WNW 05:31:41 10° NNE
Cosmos 1908 3.9 05:22:27 10° NNW 05:25:55 45° W 05:27:39 25° SSW
Aureole 3 4.2 05:27:56 31° E 05:28:04 31° E 05:31:56 10° NNE
Resurs 01 Rocket 4.5 05:28:58 10° WSW 05:29:59 11° W 05:30:58 10° WNW
Cosmos 1862 Rocket 3.8 05:32:16 43° SE 05:33:10 51° E 05:37:27 10° NNE
Meteor 2-10 Rocket 3.6 05:29:57 10° N 05:35:29 72° E 05:37:36 37° SSE
Terra 1.8 05:33:36 34° S 05:35:39 79° WSW 05:40:23 10° NNW
Cosmos 2278 3.8 05:30:32 10° NNW 05:36:13 70° WSW 05:38:57 31° S
USA 234 4.1 05:31:33 10° NE 05:37:49 51° NW 05:44:04 10° WSW
Meteor 1-21 4.2 05:36:20 31° S 05:39:07 68° E 05:44:54 10° NNE
SL-27 R/B 2.6 05:40:47 49° N 05:40:47 49° N 05:42:57 10° NNE
Landsat 5 3.4 05:37:39 10° NNE 05:41:40 58° E 05:42:09 54° SE
Cosmos 883 Rocket 4.5 05:38:27 10° N 05:44:50 86° E 05:47:52 34° S
Okean 3 3.5 05:44:40 53° ESE 05:44:55 54° E 05:48:59 10° NNE
SL-14 R/B 3.5 05:47:52 41° SW 05:48:56 61° W 05:52:41 10° N
Ariane Rocket 3.1 05:47:41 37° S 05:49:41 73° WSW 05:54:46 10° NNW
Cosmos 2219 Rocket 3.5 05:44:50 10° N 05:49:41 28° ENE 05:51:37 23° E
Landsat 4 3.6 05:51:47 61° WSW 05:51:56 62° W 05:55:20 10° NNW
Meteor 1-4 Rocket 3.8 05:53:21 25° NE 05:53:21 25° NE 05:54:50 10° NNE
Cosmos 1707 Rocket 3.7 05:52:13 41° SSW 05:53:42 73° W 05:58:10 10° N
BREEZE-M DEB (TANK) 4.3 05:51:59 10° NNW 05:53:52 21° NE 05:54:33 19° NE
SJ 16-02 1.1 05:53:27 64° SSE 05:53:57 74° ESE 05:58:16 10° NNE
Cosmos 1346 Rocket 2.6 05:57:22 10° N 06:01:14 88° WSW 06:01:14 88° WSW
COSMOS 2455 4.2 06:07:48 23° E 06:07:48 23° E 06:11:20 10° NE
RESURS DK-1 2.4 06:02:37 10° NNW 06:06:39 62° WSW 06:06:46 62° WSW
ARIANE 5 R/B 4.0 06:08:40 25° ENE 06:08:41 25° ENE 06:12:11 10° NNE
CZ-4C R/B 4.1 06:13:08 11° ENE 06:13:08 11° ENE 06:13:35 10° ENE
Cosmos 2315 Rocket 4.3 06:05:20 10° NNW 06:11:39 64° W 06:14:25 34° SSW
SPOT 3 Rocket 4.2 06:12:49 34° SW 06:14:28 46° W 06:19:26 10° NNW
Cosmos 2360 Rocket 2.1 06:08:50 10° NNW 06:14:32 88° ENE 06:15:45 57° SSE
Cosmos 1455 3.6 06:15:44 10° NNE 06:17:48 27° NE 06:17:48 27° NE
Cosmos 1733 Rocket 3.4 06:15:02 10° NNW 06:19:21 55° W 06:19:50 51° WSW
Cosmos 968 Rocket 4.4 06:17:01 19° SW 06:20:21 45° WNW 06:25:20 10° N
Cosmos 1758 4.4 06:16:49 10° NNW 06:20:24 35° W 06:20:44 34° WSW
SeaSat 1 3.7 06:21:45 27° SW 06:22:47 30° WSW 06:27:05 10° NW
ATLAS 2AS CENTAUR R/B 2.6 06:16:13 10° NNW 06:23:00 77° ENE 06:24:53 50° SE
Okean 1-7 2.9 06:24:31 83° NW 06:24:31 83° NW 06:28:46 10° N
SL-16 R/B 3.3 06:20:17 10° NW 06:25:20 34° WSW 06:26:57 29° SW
Cosmos 2333 Rocket 2.2 06:22:21 10° NNW 06:28:08 79° WSW 06:29:07 61° S
GP-B 3.7 06:27:04 10° NNE 06:30:43 46° ENE 06:30:43 46° ENE
Cosmos 1908 Rocket 3.9 06:28:59 10° N 06:32:43 55° NE 06:32:43 55° NE
USA 281 3.6 06:32:33 40° ESE 06:34:29 53° ENE 06:40:50 10° NNW
Cosmos 1814 Rocket 3.9 06:29:56 10° NNW 06:35:16 85° WSW 06:35:43 75° S
Atlas Centaur 2 3.5 06:31:15 10° W 06:38:43 39° SSW 06:38:43 39° SSW
Okean 2 4.3 06:47:31 42° WNW 06:47:31 42° WNW 06:51:02 10° N
Cosmos 2237 Rocket 4.3 06:45:27 10° NNE 06:48:53 16° NE 06:51:07 13° E
Cosmos 2227 Rocket 4.3 06:52:28 13° E 06:52:28 13° E 06:53:51 10° ENE
Cosmos 2322 4.1 06:46:18 10° NNW 06:51:50 51° ENE 06:52:24 49° E
Cosmos 1745 Rocket 3.9 06:53:20 66° SSE 06:54:11 77° E 07:00:32 10° N
Cosmos 2333 4.4 06:52:03 10° NNW 06:57:41 58° WSW 06:58:05 56° SW
ALOS 2 4.1 07:00:33 28° NE 07:00:33 28° NE 07:03:46 10° N
Cosmos 1315 Rocket 4.5 07:00:13 28° WNW 07:00:13 28° WNW 07:03:37 10° NNW
Cosmos 1953 3.8 07:02:21 10° NNW 07:04:51 32° NW 07:04:51 32° NW
Cosmos 2322 Rocket 3.7 07:03:33 10° NW 07:07:59 24° W 07:08:34 23° WSW
Cosmos 839 Rocket 3.9 07:01:44 10° NNW 07:08:14 70° WSW 07:08:45 66° SSW
Nadezhda 1 Rocket 3.8 07:02:10 10° N 07:08:28 87° E 07:09:03 75° SSE
Cosmos 2297 Rocket 2.8 07:11:26 42° ENE 07:11:26 42° ENE 07:15:51 10° NE
CENTAUR R/B 3.9 07:20:44 21° E 07:20:44 21° E 07:23:47 10° ENE
BlueWalker 3 3.9 07:23:59 26° NW 07:24:05 26° NNW 07:27:16 10° NNE
Meteor 2-5 Rocket 3.9 07:24:16 62° E 07:24:16 62° E 07:29:53 10° NNE
Cosmos 2242 Rocket 4.3 07:25:41 54° N 07:25:41 54° N 07:29:16 10° N
Cosmos 1486 Rocket 4.1 07:26:40 72° NNW 07:26:40 72° NNW 07:31:30 10° NNE
Cosmos 371 Rocket 3.7 07:29:05 58° N 07:29:05 58° N 07:32:58 10° NNE
COSMOS 2428 2.6 07:27:38 10° NNW 07:33:09 84° NNW 07:33:09 84° NNW
H-2A R/B 3.6 07:34:51 42° NW 07:34:51 42° NW 07:37:51 10° NNW
Cosmos 2219 Rocket 3.0 07:28:27 10° NW 07:33:19 38° W 07:33:19 38° W
Cosmos 1354 Rocket 4.4 07:42:02 55° ENE 07:42:02 55° ENE 07:46:24 10° NNE
Cosmos 2263 Rocket 4.3 07:45:28 14° E 07:45:28 14° E 07:47:22 10° ENE
ARIANE 5 R/B 4.5 07:46:08 22° WNW 07:46:08 22° WNW 07:48:32 10° NW
COSMOS 2455 3.5 07:50:52 42° W 07:52:10 49° WNW 07:58:02 10° NNE
Cosmos 1709 Rocket 4.4 07:52:59 50° WSW 07:53:47 53° W 08:00:01 10° N
NOSS 0 Rocket 3.8 07:47:34 10° NNW 07:53:51 88° ENE 07:54:00 86° SE
CZ-4C R/B 2.7 07:58:11 41° NW 07:58:14 41° NW 08:03:12 10° NNE
NOSS 3-2 (A) 4.5 08:06:19 27° E 08:06:19 27° E 08:09:41 10° NE
Cosmos 2184 Rocket 4.1 08:07:26 64° ESE 08:07:39 64° E 08:13:56 10° NNE
SL-12 R/B(2) 4.1 08:08:54 61° SSE 08:10:04 68° ESE 08:19:06 10° NE
Cosmos 2098 Rocket 3.9 08:04:20 10° N 08:10:57 76° W 08:11:08 75° WSW
ATLAS 2AS CENTAUR R/B 4.4 08:09:02 10° WNW 08:12:18 16° W 08:12:18 16° W
USA 281 4.4 08:19:25 26° W 08:19:25 26° W 08:24:33 10° NW
SL-4 R/B 3.5 08:16:28 10° NW 08:19:47 35° NNE 08:19:47 35° NNE
Cosmos 332 Rocket 4.3 08:22:36 57° N 08:22:36 57° N 08:26:37 10° NNE
Cosmos 2154 Rocket 3.9 08:24:17 70° ESE 08:24:30 71° E 08:30:44 10° NNE
SL-16 R/B 3.8 08:21:20 10° N 08:26:15 29° ENE 08:28:24 23° E
Cosmos 990 Rocket 4.3 08:28:19 59° NE 08:28:19 59° NE 08:32:36 10° NNE
Cosmos 1825 4.5 08:30:09 20° N 08:30:09 20° N 08:31:23 10° N
H-2A R/B 3.2 08:25:07 10° N 08:28:00 39° NNW 08:28:00 39° NNW
Cosmos 2237 Rocket 2.3 08:27:52 10° NNW 08:32:55 66° WNW 08:32:55 66° WNW
Cosmos 2227 Rocket 2.3 08:34:15 67° WNW 08:34:15 67° WNW 08:39:52 10° NNE
Cosmos 1455 Rocket 4.4 08:39:09 10° N 08:42:43 35° ENE 08:42:43 35° ENE
Okean 2 Rocket 4.3 08:39:32 10° NNW 08:42:29 36° NW 08:42:29 36° NW
Cosmos 1980 4.2 08:41:06 10° NNW 08:45:41 47° WNW 08:45:41 47° WNW
GEOS 3 Rocket 4.1 08:41:58 10° NNE 08:46:55 50° NW 08:47:19 48° WNW
CZ-2D R/B 4.3 08:45:39 10° ENE 08:48:02 13° E 08:48:55 13° ESE
Cosmos 1538 Rocket 4.5 08:43:11 10° N 08:48:16 52° ENE 08:48:32 51° E
Meteor 1-21 Rocket 4.2 08:50:20 78° ESE 08:50:22 78° E 08:56:06 10° NNE
Cosmos 1025 Rocket 3.9 08:54:33 47° N 08:54:33 47° N 08:57:41 10° N
Cosmos 2297 Rocket 3.8 08:53:11 21° W 08:54:43 24° WNW 08:59:12 10° N
Cosmos 2219 3.1 08:57:02 81° WNW 08:57:02 81° WNW 09:02:39 10° NNE
Cosmos 1610 Rocket 4.4 08:59:32 72° SW 09:00:07 78° W 09:06:31 10° N
Cosmos 372 Rocket 4.4 09:02:01 54° E 09:02:01 54° E 09:06:48 10° NNE
Aureole 1 Rocket 4.3 09:05:11 33° N 09:05:11 33° N 09:07:37 10° NNE
Helios 1A Rocket 4.1 09:08:46 37° NE 09:08:46 37° NE 09:11:29 10° N
CENTAUR R/B 2.9 09:07:50 42° W 09:09:00 48° NW 09:15:30 10° NNE
Cosmos 1461 4.2 09:11:56 34° NE 09:11:56 34° NE 09:14:18 10° NE
ADEOS II 4.2 09:10:41 10° ENE 09:13:38 15° E 09:15:11 13° ESE
Cosmos 2341 Rocket 4.1 09:12:42 58° SE 09:13:40 66° E 09:19:48 10° NNE
CRYOSAT 2 4.4 09:09:41 10° N 09:14:17 76° NE 09:14:17 76° NE
Cosmos 1937 Rocket 3.5 09:18:40 69° ESE 09:18:40 69° ESE 09:23:53 10° NNE
Cosmos 1898 Rocket 3.4 09:22:24 78° WNW 09:22:24 78° WNW 09:27:32 10° NNE
Cosmos 1339 Rocket 4.4 09:17:07 10° N 09:23:32 88° W 09:24:38 64° S
Resurs 1-4 Rocket 3.2 09:22:42 10° NNE 09:27:28 34° E 09:28:26 31° ESE
Cosmos 2263 Rocket 2.2 09:27:08 61° W 09:27:35 64° WNW 09:33:07 10° NNE
Cosmos 1869 4.0 09:38:12 10° N 09:41:04 47° NNE 09:41:04 47° NNE
Cosmos 1821 Rocket 4.4 09:44:40 37° SE 09:46:46 53° E 09:52:41 10° NNE
Cosmos 1844 Rocket 3.7 09:45:59 30° SE 09:47:22 34° ESE 09:52:21 10° NE
Cosmos 1437 Rocket 4.1 09:47:29 30° E 09:47:29 30° E 09:50:52 10° NNE
ALOS 4.5 09:46:47 10° NE 09:49:42 16° E 09:51:42 13° ESE
Cosmos 2218 Rocket 3.9 09:48:21 56° SSW 09:49:47 82° W 09:56:01 10° N
Cosmos 1544 Rocket 3.4 09:50:31 10° N 09:54:59 83° E 09:55:05 82° ESE
NOSS 3-2 (A) 4.3 09:53:39 26° W 09:55:25 32° NW 10:00:43 10° NNE
Cosmos 2366 rocket 4.0 09:55:02 52° SW 09:56:30 70° W 10:02:45 10° N
Cosmos 2228 3.2 09:53:46 10° N 09:58:04 64° E 09:58:31 59° ESE
Cosmos 1680 Rocket 3.6 09:53:18 10° NNW 09:58:31 70° ENE 10:00:26 39° SE
Cosmos 2112 Rocket 4.3 09:55:40 10° N 10:00:48 61° ENE 10:03:19 29° SE
Cosmos 1818 3.9 09:55:40 10° NNW 10:01:08 67° ENE 10:05:15 17° SE
NOSS 3-2 (C) 3.2 10:00:08 52° WSW 10:01:11 64° NW 10:07:02 10° NNE
MSX 3.7 10:01:10 10° NNE 10:06:56 89° WNW 10:08:36 49° SSW
USA 267 3.6 10:02:44 10° NE 10:09:05 52° SE 10:11:21 37° S
BREEZE-M DEB (TANK) 4.1 10:06:57 10° NW 10:08:03 17° NW 10:08:03 17° NW
SL-16 R/B 2.8 10:05:11 10° NW 10:10:12 37° W 10:10:12 37° W
H-2A R/B 3.3 10:07:55 10° N 10:11:52 68° WNW 10:11:52 68° WNW
IDEFIX/ARIANE 42P 2.7 10:12:35 10° N 10:17:44 58° WNW 10:18:57 46° WSW
CZ-2C R/B 2.5 10:18:45 38° SSE 10:20:51 88° WSW 10:26:15 10° NNW
SL-16 R/B 3.5 10:15:03 10° SE 10:20:56 45° ENE 10:26:49 10° N
CZ-2C R/B 3.0 10:18:49 10° NNE 10:24:12 88° WNW 10:25:53 44° SSW
Cosmos 1943 3.2 10:19:31 10° NNW 10:25:10 84° ENE 10:29:23 18° SSE
GRACE-FO 1 4.5 10:25:33 70° SE 10:25:48 74° E 10:29:20 10° N
GRACE-FO 2 4.5 10:26:00 71° SE 10:26:14 76° E 10:29:47 10° N
CZ-2D R/B 2.1 10:23:12 10° N 10:28:30 68° WNW 10:30:12 42° SW
Cosmos 1606 4.3 10:25:56 10° NNW 10:27:48 22° WNW 10:27:48 22° WNW
Cosmos 1606 Rocket 4.3 10:26:09 10° N 10:30:30 50° E 10:33:15 20° SSE
Cosmos 921 Rocket 4.1 10:26:40 10° N 10:30:40 40° ENE 10:34:31 10° SE
FENGYUN 3A 3.6 10:26:41 10° NNE 10:32:05 83° ESE 10:34:26 35° S
Cosmos 1536 Rocket 4.0 10:32:33 43° WSW 10:33:08 46° W 10:37:25 10° N
ASTEX 1 3.8 10:31:48 21° SSE 10:34:56 60° E 10:39:43 10° N
Iridium 2 4.2 10:40:08 30° E 10:40:08 30° E 10:42:20 10° NNE
Cosmos 1125 Rocket 4.2 10:38:11 23° SSE 10:41:09 48° ESE 10:46:13 10° NNE
Cosmos 1867 3.8 10:41:52 35° WSW 10:44:06 61° WNW 10:49:31 10° NNE
Cosmos 1726 Rocket 4.2 10:41:35 10° N 10:45:57 55° E 10:49:33 14° SSE
Cosmos 1812 4.4 10:42:54 10° NNE 10:46:02 28° ENE 10:49:08 10° SE
Cosmos 2239 Rocket 4.4 10:45:34 30° SSW 10:48:45 70° W 10:54:52 10° N
Dummy Sat-02 4.4 10:46:33 10° N 10:50:13 77° W 10:51:13 45° SSW
Cosmos 2058 4.0 10:48:10 17° SSE 10:50:49 39° E 10:54:38 10° NNE
Cosmos 494 Rocket 4.1 10:45:39 10° NNW 10:50:54 79° ENE 10:56:09 10° SSE
Cosmos 1727 Rocket 4.1 10:45:05 10° NNW 10:51:18 59° W 10:55:03 25° SSW
ADEOS II 2.2 10:48:26 10° N 10:53:35 59° WNW 10:56:03 30° SW
SAR-Lupe-4 3.9 10:51:46 10° NNE 10:55:17 61° E 10:56:48 31° S
IRAS Rocket 4.4 10:53:44 10° NNE 10:59:13 71° ESE 11:03:12 19° S
Cosmos 1844 3.8 10:57:17 28° SW 11:00:17 65° WNW 11:06:04 10° NNE
Dummy Sat-01 4.5 11:00:27 10° N 11:04:10 78° W 11:05:58 29° S
USA 81 4.4 10:59:02 10° N 11:04:16 64° E 11:09:29 10° SSE
Cosmos 1000 Rocket 4.5 10:59:03 10° NNW 11:05:16 66° W 11:10:17 16° S
Resurs 1-4 Rocket 3.3 11:02:41 10° N 11:07:06 28° WNW 11:09:29 20° WSW
USA 238 DEB 4.1 11:03:40 21° WSW 11:07:28 45° NW 11:13:48 10° NNE
USA 238 4.1 11:03:42 21° WSW 11:07:30 45° NW 11:13:51 10° NNE
Iridium 4 Rocket 4.0 11:03:36 10° N 11:08:01 52° E 11:12:48 10° SSE
ATLAS 5 CENTAUR R/B 2.8 11:06:36 14° SSE 11:08:23 21° ESE 11:11:01 10° ENE
UNK 4.0 11:04:49 10° SSE 11:09:23 70° ENE 11:13:58 10° N
Meteor 1-28 Rocket 3.2 11:10:01 31° SSW 11:11:21 50° W 11:14:49 10° NNW
Timation 2 Rocket 4.1 11:08:50 20° SSW 11:13:45 86° ESE 11:20:13 10° NNE
Cosmos 1544 3.3 11:13:19 21° SSE 11:14:43 41° E 11:17:12 10° NNE
AQUA 4.4 11:10:34 10° N 11:15:00 42° WNW 11:17:29 23° SW
Delta 2 Rocket 3.4 11:18:28 20° W 11:21:02 53° S 11:25:16 10° ESE
Cosmos 1892 Rocket 3.9 11:19:49 23° SW 11:22:15 48° W 11:26:32 10° N
Cosmos 2058 Rocket 3.2 11:20:00 10° N 11:24:26 77° E 11:28:48 10° S
ALOS 2.8 11:22:42 10° N 11:27:04 43° WNW 11:30:00 19° SW
NOAA 11 4.4 11:22:16 10° NNE 11:27:45 74° ESE 11:33:11 10° S
Cosmos 1535 Rocket 4.5 11:24:39 12° SSW 11:30:28 76° W 11:36:39 10° N
Cosmos 1844 Rocket 3.8 11:27:38 16° WSW 11:31:12 30° WNW 11:36:05 10° N
NOSS 2-3 (D) 4.5 11:29:16 11° S 11:32:23 33° ESE 11:35:47 10° NE
METEOR-M 4.1 11:29:07 10° NNE 11:34:29 87° WNW 11:39:49 10° SSW
Cosmos 2298 Rocket 4.1 11:29:42 13° SSW 11:34:31 83° ESE 11:39:53 10° NNE
Cosmos 1607 3.9 11:37:57 10° NW 11:44:18 71° WSW 11:50:29 10° SSE
Orbus 7S? 4.4 11:41:47 10° WNW 11:45:18 40° SW 11:52:20 10° SSE
Cosmos 1605 Rocket 4.0 11:42:11 10° SSW 11:48:21 65° W 11:54:27 10° N
Cosmos 1626 Rocket 3.5 11:44:32 10° S 11:48:58 82° W 11:53:25 10° N
CZ-4 R/B 4.0 11:44:11 10° N 11:49:05 68° WNW 11:54:01 10° SSW
NOSS 2-2 (C) 2.8 11:46:58 15° SW 11:49:45 74° WNW 11:52:51 10° NNE
USA 267 4.0 11:45:50 10° NE 11:51:58 45° NW 11:58:06 10° WSW
Cosmos 2278 Rocket 3.8 11:48:47 10° SSE 11:53:43 32° ESE 11:58:39 10° NE
H-2A R/B 3.5 11:49:20 10° NNE 11:54:12 36° E 11:58:55 10° SSE
SWAS 4.4 11:50:31 11° SSW 11:54:27 74° WNW 11:58:39 10° NNE
Cosmos 1862 4.4 11:50:59 10° SSE 11:54:35 43° E 11:58:13 10° NNE
